Location: Del Cerro
(32.7842°N, 117.0703°W)
Time: 06:08:29
(UTC+00:00)

Daily predictions for brighter satellites

Satellite Brightness Start Highest point End
(mag) Time Altitude Azimuth Time Altitude Azimuth Time Altitude Azimuth
Cosmos 1933 Rocket 3.9 12:04:28 10° N 12:08:51 65° E 12:13:10 10° SSE
Meteor 1-11 Rocket 3.9 12:04:09 10° NNW 12:09:53 51° W 12:15:33 10° SSW
Delta 2 Rocket 3.2 12:10:34 49° N 12:10:40 50° N 12:13:55 10° ENE
Helios 1B rocket 4.3 12:07:27 10° NNW 12:08:44 17° NNW 12:08:44 17° NNW
USA 276 2.3 12:12:54 59° SE 12:12:55 59° SE 12:15:53 10° NE
Cosmos 1459 Rocket 4.1 12:09:00 12° SSW 12:14:45 54° W 12:20:59 10° N
GP-B 3.1 12:12:12 10° S 12:16:37 81° E 12:21:03 10° N
Cosmos 1864 Rocket 4.4 12:12:01 10° S 12:18:13 83° W 12:24:31 10° N
NOSS 3-2 (C) 3.0 12:18:55 24° SW 12:22:10 73° WNW 12:28:03 10° NNE
CZ-2C R/B 3.2 12:17:38 10° NNE 12:23:20 89° ESE 12:28:43 10° SSW
NOSS 3-2 (A) 3.9 12:21:57 30° W 12:23:22 34° NW 12:28:45 10° NNE
Cosmos 2346 Rocket 4.5 12:20:11 10° NNW 12:26:06 55° W 12:32:03 10° SSW
Meteor 1-19 Rocket 4.2 12:21:18 10° SSW 12:26:36 53° W 12:31:53 10° N
Cosmos 1515 Rocket 4.4 12:27:51 29° WNW 12:27:51 29° WNW 12:31:42 10° NNW
ASTRO E2 3.2 12:27:48 33° SW 12:28:50 41° SSW 12:32:31 10° SE
Cosmos 2233 Rocket 4.3 12:22:34 10° S 12:28:51 73° E 12:35:09 10° N
Cosmos 1741 Rocket 4.4 12:24:12 10° N 12:29:23 66° ENE 12:34:33 10° SSE
Lacrosse 5 rocket 4.0 12:26:27 10° S 12:29:55 22° ESE 12:33:24 10° ENE
CZ-2D R/B 4.1 12:26:50 10° N 12:30:24 32° WNW 12:30:58 30° W
Spot 4 Rocket 3.9 12:26:38 10° N 12:31:44 68° WNW 12:36:48 10° SSW
Cosmos 1802 Rocket 4.2 12:26:45 10° SSW 12:32:54 49° W 12:39:01 10° N
Cosmos 1378 3.6 12:33:07 31° WSW 12:33:56 35° W 12:37:18 10° NNW
Cosmos 1331 Rocket 4.1 12:30:29 11° SSW 12:35:18 53° WNW 12:40:20 10° N
SL-08 R/B 3.2 12:30:53 10° S 12:35:28 65° WSW 12:40:09 10° NNW
CZ-4C R/B 3.9 12:31:36 10° SSE 12:35:39 65° ENE 12:39:53 10° N
Tsikada Rocket 4.4 12:30:14 10° N 12:36:29 69° E 12:42:38 10° SSE
FALCON 9 R/B 1.9 12:37:00 19° SSW 12:37:00 19° SSW 12:38:32 10° SSE
Cosmos 2228 Rocket 3.1 12:32:47 10° S 12:37:17 85° E 12:41:46 10° N
Cosmos 1302 Rocket 4.3 12:32:04 10° S 12:37:17 70° ESE 12:42:33 10° NNE
USA 238 DEB 3.5 12:32:05 12° SW 12:37:55 64° WNW 12:44:32 10° NNE
USA 238 3.5 12:32:07 12° SW 12:38:02 65° WNW 12:44:39 10° NNE
Cosmos 1725 Rocket 4.0 12:32:01 10° SSW 12:38:12 59° W 12:44:27 10° N
Okean 1 4.2 12:38:33 25° WSW 12:39:28 27° W 12:42:56 10° NNW
Meteor 1-29 3.4 12:36:44 10° N 12:39:46 35° WNW 12:41:19 22° SW
Cosmos 1980 Rocket 2.3 12:34:56 10° NNW 12:40:17 48° WSW 12:45:37 10° S
Cosmos 1470 Rocket 4.5 12:37:57 10° NW 12:41:33 26° W 12:45:09 10° SW
ARIANE 5 R/B 3.6 12:40:12 10° NNW 12:43:59 22° WNW 12:45:46 18° W
Cosmos 1484 Rocket 4.1 12:42:20 10° NNW 12:45:20 21° WNW 12:46:03 20° W
Meteor 2-9 Rocket 4.2 12:40:48 10° NNW 12:46:20 57° W 12:51:42 10° S
ATLAS 3B CENTAUR R/B 4.1 12:37:32 18° WSW 12:46:38 71° S 12:59:43 10° E
Cosmos 2369 4.3 12:47:25 10° NW 12:52:27 34° WSW 12:57:28 10° SSW
MINOTAUR IV R/B 4.5 12:48:40 10° NNW 12:53:09 78° WSW 12:57:35 10° SSE
DELTA 2 R/B (1) 4.4 12:48:44 12° WNW 12:53:42 45° N 12:59:03 10° E
Cosmos 1939 Rocket 4.3 12:54:03 10° NNE 12:57:51 41° E 13:01:34 10° S
Cosmos 2278 3.7 12:53:37 10° NNW 12:59:13 66° WSW 13:04:47 10° S
X-37B 3.1 12:59:02 10° NNW 13:00:38 14° NNE 13:02:14 10° NE
SL-16 R/B 3.0 12:55:50 10° NNW 13:01:25 57° ENE 13:06:58 10° SE
Cosmos 1242 Rocket 3.2 12:59:26 10° N 13:02:48 56° E 13:06:07 10° SSE
NOAA 11 4.4 13:00:13 10° N 13:05:30 51° WNW 13:10:44 10° SSW
Envisat 4.0 13:01:50 10° NNW 13:05:53 25° WNW 13:09:56 10° WSW
COSMO-SKYMED 1 2.8 13:03:49 10° SSE 13:08:08 77° ENE 13:12:28 10° N
USA 234 3.6 13:05:19 10° NNE 13:11:30 47° NW 13:17:40 10° WSW
Cosmos 1707 Rocket 3.5 13:08:02 10° SSW 13:12:21 66° W 13:16:40 10° N
ATLAS CENTAUR R/B 4.2 13:11:10 10° SSE 13:13:00 16° ESE 13:15:35 10° ENE
Cosmos 1975 3.0 13:11:07 10° NNW 13:14:55 46° W 13:18:41 10° SSW
Cosmos 968 Rocket 4.2 13:10:32 10° N 13:15:37 58° ENE 13:20:37 10° SSE
SL-8 R/B 4.3 13:11:18 10° SW 13:15:57 57° SE 13:20:37 10° ENE
CZ-3 R/B 2.9 12:54:20 11° W 13:16:17 70° S 13:22:30 10° E
